www.pogodaiklimat.ru

Погода и климат >> Архив погоды >> Россия >> Татарстан >> Казань


АРХИВ ПОГОДЫ в Казани

Время (UTC), дата Ветер
(напр.,м/с)
 
Видим.   Явления Облачность Т
(С)
Тd
(С)
f
(%)
Тe
(С)
Тes
(С)
Комфортность P
(гПа)
Po
(гПа)
Тmin
(С)
Tmax
(С)
R
(мм)
R24
(мм)
S
(см)
06 10.08 СЗ 1 10 км ясно +19.9 +10.6 55 +22 +32 комфорт 1024.0 1009.9
09 10.08 СЗ 2 10 км 9/6 300 м
[Cu med, cong Ci fib]
+21.7 +10.4 49 +23 +28 комфорт 1023.3 1009.4
12 10.08 СЗ 3 10 км 8/6 300 м
[Cu hum Ci fib]
+22.7 +8.8 41 +24 +26 комфорт 1022.0 1008.1
15 10.08 СЗ 2 10 км 3/3 300 м
[Cu hum]
+21.9 +8.5 42 +23 +24 комфорт 1021.5 1007.6 +23.6
18 10.08 штиль 0 10 км 3/3 600 м
[Sc diur, vesp]
+18.4 +9.8 57 +19 +19 тепло 1021.9 1007.8
21 10.08 ЮВ 1 10 км ясно +14.4 +10.8 79 +15 +15 по сезону 1021.3 1007.0
00 11.08 штиль 0 10 км ясно +13.4 +11.3 87 +13 +13 по сезону 1021.2 1006.9
03 11.08 Ю 1 10 км 10/0
[Ac trans Cs]
+15.3 +12.0 81 +16 +17 по сезону 1020.6 1006.4 +12.8
06 11.08 ЮЗ 2 10 км 9/3 600 м
[Sc Ac lent Cc]
+19.9 +13.3 66 +22 +26 комфорт 1018.8 1004.9
09 11.08 З 3 10 км 9/6 600 м
[Cb cap Ac cast Ci fib]
+22.8 +11.4 49 +25 +28 комфорт 1016.9 1003.1
12 11.08 З 2 10 км 8/4 600 м
[Sc diur, vesp Ac cast Ci fib]
+22.6 +11.8 50 +25 +28 комфорт 1015.2 1001.4
15 11.08 ЮЗ 3 10 км 9/5 600 м
[Cb cap Ac cast Ci fib]
+22.3 +12.7 55 +25 +25 комфорт 1013.3 999.5 +23.7
18 11.08 ЮЗ 3 10 км 9/8 600 м
[Cb cap Ci fib]
+20.2 +13.3 65 +23 +23 комфорт 1012.5 998.7
21 11.08 З 1 10 км гроза без осадков {ливн. осадки} 9/5 600 м
[Cb calv Ac trans]
+18.5 +14.8 79 +20 +20 тепло 1011.6 997.7
00 12.08 З 2 10 км {гроза, ливн. осадки} ясно +17.7 +15.3 86 +18 +18 тепло 1011.3 997.4
03 12.08 З 2 10 км {гроза} 10/10 600 м
[Sc diur, vesp]
+17.5 +15.9 90 +18 +18 тепло 1011.3 997.3 +16.0
06 12.08 З 3 10 км 10/5 600 м
[Sc Ci fib]
+19.3 +15.8 80 +21 +24 комфорт 1011.4 997.6
09 12.08 СЗ 3 10 км 10/5 600 м
[Cb cap Ci fib]
+22.3 +14.2 60 +26 +30 жарко 1011.6 997.9
12 12.08 СЗ 3
{11}
10 км 10/4 1000 м
[Cu med, cong Cs]
+22.4 +10.7 47 +24 +27 комфорт 1012.4 998.6
15 12.08 СЗ 3 10 км 10/3 600 м
[Sc Cs]
+21.6 +11.7 53 +24 +24 комфорт 1012.8 999.0 +23.8
18 12.08 СЗ 1 10 км ясно +18.2 +11.2 64 +20 +20 тепло 1014.7 1000.7
21 12.08 штиль 0 10 км 4/0
[Ac As]
+16.4 +11.3 72 +16 +16 по сезону 1015.3 1001.2
00 13.08 СЗ 1 10 км ясно +15.3 +11.3 77 +16 +16 тепло 1015.5 1001.4
03 13.08 СЗ 1 10 км ясно +15.7 +12.1 79 +16 +18 по сезону 1016.8 1002.7 +14.3
06 13.08 СЗ 2 10 км 3/3 300 м
[Cu hum]
+19.8 +12.4 62 +22 +28 комфорт 1017.3 1003.4
09 13.08 В 2 10 км 8/8 300 м
[Cu hum]
+22.0 +11.0 50 +24 +26 комфорт 1017.3 1003.4
12 13.08 СВ 2 10 км 8/8 300 м
[Cu hum]
+22.6 +10.6 47 +25 +26 комфорт 1017.6 1003.8
15 13.08 СВ 2 10 км 4/3 300 м
[Cu hum Ac trans]
+21.5 +9.7 47 +23 +23 комфорт 1017.9 1004.0 +23.5
18 13.08 В 2 10 км ясно +18.6 +9.7 56 +20 +20 тепло 1018.5 1004.5
21 13.08 В 3 10 км ясно +14.8 +10.4 75 +14 +14 по сезону 1020.0 1005.7
00 14.08 В 2 10 км ясно +13.1 +10.1 82 +12 +12 прохладно 1021.0 1006.7
03 14.08 В 1 10 км ясно +13.9 +9.8 76 +14 +16 прохладно 1021.7 1007.4 +12.6
06 14.08 В 2 10 км 3/0
[Ci fib]
+17.9 +10.1 60 +18 +26 по сезону 1021.7 1007.6
09 14.08 ЮВ 1 10 км ясно +20.9 +9.3 47 +24 +38 комфорт 1021.1 1007.1
12 14.08 СВ 1 10 км ясно +22.4 +9.6 44 +24 +32 комфорт 1020.5 1006.6
15 14.08 В 2 10 км ясно +21.5 +9.7 47 +23 +24 комфорт 1020.2 1006.3 +22.7
18 14.08 В 1 10 км ясно +16.0 +11.5 75 +17 +17 по сезону 1021.2 1007.0
21 14.08 В 2 10 км ясно +14.3 +10.5 78 +14 +14 по сезону 1021.4 1007.2
00 15.08 В 2 10 км ясно +12.9 +10.6 86 +12 +12 по сезону 1021.0 1006.7
03 15.08 ЮВ 1 10 км 3/0
[Ci fib]
+14.0 +11.7 86 +14 +16 прохладно 1021.3 1007.0 +12.2
06 15.08 Ю 1 10 км 10/0
[Ci]
+19.3 +13.0 67 +22 +29 комфорт 1021.1 1007.1
09 15.08 Ю 2 10 км 10/1 600 м
[Cu hum Ci]
+22.6 +11.5 49 +25 +33 комфорт 1020.7 1006.8
12 15.08 ЮЗ 2 10 км 10/3 600 м
[Sc diur, vesp Cs]
+24.2 +11.0 43 +25 +29 комфорт 1020.5 1006.7
15 15.08 СЗ 1 10 км 9/5 600 м
[Cb cap Ac lent Ci fib]
+22.8 +11.6 49 +25 +25 комфорт 1020.8 1006.9 +24.5
18 15.08 С 3 10 км 9/6 600 м
[Sc diur, vesp Ac trans]
+19.0 +14.8 77 +20 +20 тепло 1022.4 1008.4
21 15.08 С 1 10 км в посл. час ливневой дождь 10/6 600 м
[Cb cap Ac lent Ci fib]
+17.3 +15.6 90 +18 +18 тепло 1023.4 1009.3
00 16.08 С 1 10 км {ливн. осадки} 10/10 600 м
[Sc diur, vesp]
+17.2 +15.6 90 +18 +18 тепло 1024.6 1010.4
03 16.08 СВ 1 10 км 10/10 600 м
[Sc]
+16.8 +13.7 82 +18 +18 тепло 1025.8 1011.6 +16.8 0.3
06 16.08 СВ 2 10 км 10/10 600 м
[Sc]
+17.8 +13.5 76 +18 +18 по сезону 1027.1 1012.9
09 16.08 10 км н/о +21.3 +12.8 58 +24 +30 комфорт 1027.3 1013.3
12 16.08 В 1 10 км 5/5 1000 м
[Cu med, cong]
+22.4 +8.9 42 +24 +28 комфорт 1027.0 1013.0
15 16.08 СВ 2 10 км ясно +21.9 +7.9 41 +23 +24 комфорт 1027.1 1013.1 +24.1
18 16.08 СВ 1 10 км ясно +18.5 +7.5 49 +20 +20 тепло 1027.9 1013.7
21 16.08 штиль 0 10 км ясно +15.6 +8.5 63 +15 +15 по сезону 1028.5 1014.2
00 17.08 СВ 1 10 км ясно +15.0 +8.9 67 +16 +16 тепло 1028.8 1014.4
03 17.08 штиль 0 10 км 3/0
[Ac cast]
+15.6 +10.4 71 +15 +17 по сезону 1029.4 1015.1 +12.7

 

Местоположение метеостанции Казань (Татарстан, Россия): широта 55.73 долгота 49.20 высота над уровнем моря 119 м.

В архиве по умолчанию представлена погода в Казани за последнюю неделю. Архивные данные за месяц целиком и за предыдущие месяцы, начиная с января 2011 года, Вы можете получить, выбрав интересующий диапазон дат из раскрывающегося списка и нажав кнопку "Ввод!".

Внимание! Время в таблицах - всемирное. Для получения местного времени необходимо прибавить поправку, которая в Казани равна 3 ч.

Смотрите также архив погоды в соседних городах и на ближайших метеорологических станциях:

Погода в Лаишево (Татарстан, Россия) (40 км)
Погода в Вязовых (Татарстан, Россия) (44 км)
Погода в Арске (Татарстан, Россия) (57 км)
Погода в Больших Кайбицах (Татарстан, Россия) (74 км)
Погода в Морках (Марий-Эл, Россия) (79 км)
Погода в Тетюшах (Татарстан, Россия) (91 км)
Погода в Чистополе (Татарстан, Россия) (102 км)
Погода в Канаше (Чувашия, Россия) (111 км)
Погода в Чебоксарах (Чувашия, Россия) (123 км)
Погода в Батырево (Чувашия, Россия) (125 км)

Пояснения к столбцам:

Ветер - указаны скорость ветра в м/с - средняя за 10 мин, порывы в срок и между сроками (в фигурных скобках) и направление, откуда дует ветер: С - северный, СВ - северо-восточный, В - восточный, ЮВ - юго-восточный, Ю - южный, ЮЗ - юго-западный, З - западный, СЗ - северо-западный.
Видимость - горизонтальная дальность видимости в метрах или километрах. При видимости от 1 до 10 км при отсутствии осадков обычно наблюдается дымка, при ухудшении видимости до 1 км и менее - туман. В сухую погоду видимость может ухудшаться дымом, пылью или мглою.
Явления - указаны атмосферные явления, наблюдавшиеся в срок или в последний час перед сроком; фигурными скобками обозначены явления, наблюдавшиеся между сроками (за 1-3 часа до срока); квадратными скобками обозначены град или гололедные отложения с указанием их диаметра в мм.
Облачность - указаны через наклонную черту общая и нижняя облачность в баллах и высота нижней границы облаков в метрах; квадратными скобками обозначены формы облаков: Ci - перистые, Cs - перисто-слоистые, Cc - перисто-кучевые, Ac - высококучевые, As - высокослоистые, Sc - слоисто-кучевые, Ns - слоисто-дождевые, Cu - кучевые, Cb - кучево-дождевые. Подробнее классификацию облаков см. в Атласе облаков (PDF).
T - Температура воздуха - температура, измеренная на высоте 2 м над землей.
Td - Температура точки росы - температура, при понижении до которой содержащийся в воздухе водяной пар достигнет насыщения.
f - Относительная влажность воздуха - влажноcть воздуха, измеренная на высоте 2 м над землей.
Te - Эффективная температура - температура, которую ощущает одетый по сезону человек в тени. Характеристика душности погоды. При расчете учитывается влияние влажности воздуха и скорости ветра на теплоощущения человека.
Tes - Эффективная температура на солнце - температура, которую ощущает человек, с поправкой на солнечный нагрев. Характеристика знойности погоды. Зависит от высоты солнца над горизонтом, облачности и скорости ветра. Ночью, в пасмурную погоду, а также при ветре 12 м/с и более поправка равна нулю.
P - Атмосферное давление - приведенное к уровню моря атмосферное давление.
Po - Атмосферное давление - измеренное на уровне метеостанции атмосферное давление.
Tmin - Минимальная температура - минимум температуры воздуха на высоте 2 м над землей.
Tmax - Максимальная температура - максимум температуры воздуха на высоте 2 м над землей.
R - Количество осадков - Количество выпавших осадков за период времени, мм. При наведении курсора мыши на число - период времени, за который выпало указанное количество осадков.
R24 - Количество осадков - Количество выпавших осадков за 24 часа, мм.
S - Снежный покров - Высота снежного покрова, см. При наведении курсора мыши на число - состояние снежного покрова и степень покрытия местности в баллах.